CW3827 Weather Reports


Display with metric or nautical units.
time (UTC)temp
F
wind
direction
speed
MPH
gust
MPH
rain 1hr
in
rain 24hr
in
rain mn
in
humidity
%
barometer
mb
20260905143024 72 64 6.0 8.0 0.00 0.15 0.00 67 1025.0
20260905141520 72 49 7.0 8.0 0.00 0.15 0.00 71 1024.7
20260905140036 68 67 3.0 5.0 0.00 0.15 0.00 77 1024.6
20260905134542 66 68 5.0 6.0 0.00 0.15 0.00 81 1024.6
20260905133030 66 60 3.0 6.0 0.00 0.15 0.00 79 1024.3
20260905131533 66 89 3.0 6.0 0.00 0.15 0.00 77 1024.1
20260905130027 65 132 5.0 7.0 0.00 0.15 0.00 77 1024.0
20260905124526 65 114 5.0 7.0 0.00 0.15 0.00 78 1023.8
20260905123019 64 126 5.0 6.0 0.00 0.15 0.00 79 1023.6
20260905121516 64 120 6.0 7.0 0.00 0.15 0.00 79 1023.4
20260905120023 64 113 7.0 9.0 0.00 0.15 0.00 78 1023.4
20260905114510 63 96 7.0 8.0 0.00 0.15 0.00 81 1023.4
20260905113030 63 74 8.0 9.0 0.00 0.15 0.00 81 1023.4
20260905111529 62 81 6.0 9.0 0.00 0.15 0.00 81 1023.5
20260905110026 63 70 0.0 4.0 0.00 0.15 0.00 80 1023.5
20260905104520 63 135 5.0 6.0 0.00 0.15 0.00 78 1023.4
20260905103016 64 126 5.0 6.0 0.00 0.15 0.00 78 1023.3
20260905101512 63 131 6.0 8.0 0.00 0.15 0.00 79 1023.2
20260905100035 64 110 7.0 7.0 0.00 0.15 0.00 79 1023.1
20260905094527 63 115 5.0 8.0 0.00 0.15 0.00 79 1023.1
20260905093028 66 89 7.0 8.0 0.00 0.15 0.00 73 1022.9
20260905091524 64 94 7.0 8.0 0.00 0.15 0.00 78 1023.0
20260905090026 62 79 7.0 8.0 0.00 0.15 0.00 83 1023.0
20260905084515 64 68 5.0 6.0 0.00 0.15 0.00 78 1023.0
20260905083029 63 72 4.0 5.0 0.00 0.15 0.00 82 1023.1
20260905081533 64 64 7.0 9.0 0.00 0.15 0.00 80 1023.4
20260905080027 64 137 5.0 7.0 0.00 0.15 0.00 81 1023.4
20260905074528 64 74 5.0 9.0 0.00 0.15 0.00 80 1023.6
20260905073025 66 105 7.0 7.0 0.00 0.15 0.00 76 1023.6
20260905071520 66 103 5.0 6.0 0.00 0.15 0.00 78 1023.7
20260905070036 65 80 5.0 6.0 0.00 0.15 0.00 81 1023.7
20260905064504 66 84 5.0 6.0 0.00 0.15 0.00 79 1023.7
20260905063004 66 92 1.0 5.0 0.00 0.15 0.00 78 1023.6
20260905061504 63 79 5.0 8.0 0.00 0.15 0.00 84 1023.8
20260905060005 62 77 4.0 6.0 0.00 0.15 0.00 86 1023.7
20260905054506 64 33 3.0 4.0 0.00 0.15 0.15 80 1023.8
20260905053012 65 82 4.0 8.0 0.00 0.15 0.15 78 1023.7
20260905051507 65 92 5.0 6.0 0.00 0.15 0.15 77 1023.7
20260905050009 65 74 6.0 8.0 0.00 0.15 0.15 80 1023.6
20260905044512 64 65 5.0 9.0 0.00 0.15 0.15 81 1023.6
20260905043007 64 79 4.0 9.0 0.00 0.15 0.15 81 1023.6
20260905041510 66 112 6.0 8.0 0.00 0.15 0.15 77 1023.6
20260905040010 65 88 6.0 6.0 0.00 0.15 0.15 80 1023.6
20260905034515 65 102 5.0 6.0 0.00 0.15 0.15 81 1023.6
20260905033010 65 85 6.0 8.0 0.00 0.15 0.15 82 1023.6
20260905031511 65 85 8.0 9.0 0.00 0.15 0.15 84 1023.5
20260905030023 65 63 9.0 11.0 0.00 0.15 0.15 86 1023.4
20260905024508 66 28 5.0 6.0 0.00 0.15 0.15 84 1023.3
20260905023010 67 47 4.0 5.0 0.00 0.15 0.15 79 1023.1
20260905021511 68 110 6.0 8.0 0.00 0.15 0.15 77 1022.9
20260905020014 66 82 7.0 9.0 0.00 0.15 0.15 87 1022.9
20260905014514 66 50 5.0 7.0 0.00 0.15 0.15 88 1023.0
20260905013027 68 77 5.0 8.0 0.00 0.15 0.15 85 1022.9
20260905011526 69 36 5.0 5.0 0.00 0.15 0.15 81 1023.1
20260905010016 70 82 0.0 0.0 0.01 0.15 0.15 80 1022.8
20260905004519 70 61 0.0 5.0 0.04 0.15 0.15 83 1022.9
20260905003025 71 91 4.0 11.0 0.04 0.15 0.15 80 1022.7
20260905001518 70 91 7.0 11.0 0.04 0.15 0.15 78 1022.6
20260905000011 71 61 7.0 11.0 0.03 0.14 0.14 74 1023.0
20260904234510 75 93 0.0 3.0 0.00 0.11 0.11 63 1022.7
20260904233006 76 58 6.0 10.0 0.00 0.11 0.11 56 1022.5
20260904231503 76 34 6.0 10.0 0.00 0.11 0.11 55 1022.6
20260904230021 76 63 10.0 14.0 0.00 0.11 0.11 57 1022.6
20260904224518 75 43 10.0 13.0 0.00 0.11 0.11 59 1022.6
20260904223016 76 57 13.0 18.0 0.00 0.11 0.11 58 1022.7
20260904221513 74 77 13.0 20.0 0.00 0.11 0.11 63 1022.7
20260904220009 72 55 15.0 22.0 0.00 0.11 0.11 65 1022.8
20260904214504 71 93 17.0 21.0 0.00 0.11 0.11 70 1023.1
20260904213027 69 93 17.0 22.0 0.11 0.11 0.11 75 1023.6
20260904211523 67 70 15.0 25.0 0.11 0.11 0.11 84 1023.9
20260904210026 65 65 16.0 20.0 0.11 0.11 0.11 86 1024.0
20260904204514 63 61 12.0 16.0 0.11 0.11 0.11 84 1024.4
20260904203016 64 86 23.0 34.0 0.00 0.00 0.00 72 1024.6
20260904201508 71 58 20.0 39.0 0.00 0.00 0.00 59 1025.3
20260904200030 80 240 1.0 8.0 0.00 0.00 0.00 44 1024.1
20260904194524 81 296 5.0 11.0 0.00 0.00 0.00 44 1023.6
20260904193026 80 351 5.0 13.0 0.00 0.00 0.00 44 1023.8
20260904191519 81 347 7.0 14.0 0.00 0.00 0.00 44 1023.9
20260904190015 81 28 7.0 12.0 0.00 0.00 0.00 44 1024.0
20260904184534 79 358 3.0 12.0 0.00 0.00 0.00 46 1024.4
20260904183035 78 338 7.0 13.0 0.00 0.00 0.00 47 1024.7
20260904181544 78 323 4.0 14.0 0.00 0.00 0.00 47 1024.8
20260904180027 77 88 8.0 18.0 0.00 0.00 0.00 49 1024.8
20260904174523 77 324 9.0 13.0 0.00 0.00 0.00 49 1025.0
20260904173023 78 8 6.0 13.0 0.00 0.00 0.00 49 1025.2
20260904171531 78 349 8.0 15.0 0.00 0.00 0.00 51 1025.2
20260904170012 77 26 9.0 16.0 0.00 0.00 0.00 52 1025.3
20260904164508 75 324 7.0 14.0 0.00 0.00 0.00 55 1025.3
20260904163003 74 123 9.0 15.0 0.00 0.00 0.00 56 1025.4
20260904161504 75 335 11.0 19.0 0.00 0.00 0.00 55 1025.3
20260904160024 75 343 11.0 18.0 0.00 0.00 0.00 55 1025.2
20260904154517 74 46 10.0 19.0 0.00 0.00 0.00 57 1025.4
20260904153018 74 1 11.0 21.0 0.00 0.00 0.00 58 1025.3
20260904151510 73 60 13.0 19.0 0.00 0.00 0.00 59 1025.1
20260904150007 73 103 11.0 19.0 0.00 0.00 0.00 59 1025.0
20260904144529 73 331 15.0 20.0 0.00 0.00 0.00 60 1025.0